Dewpoint
62 62 63 62 62 65 66 64 64 63 63 62 62 64 65 65 67 65 65 67 66 66 65 65 66 66 67 67 66 67 67 66 66 65 65 65 64 65 64 63 64 64
62 64 66 63 66 66 65 65 64 63 63 64 63 63 64 65 65 65 65 66 67 65 65 65 65 65 65 65 65 66 65 66 65 67 66 65 64 64 64 63 62 62
62 65 64 64 64 64 62 62 64 62 63 63 63 63 63 66 64 64 65 66 65 64 64 65 64 65 65 65 65 65 66 65 65 66 66 65 65 65 64 64 63 63
63 64 64 63 64 63 62 62 64 63 62 62 63 64 66 65 65 64 64 69 65 64 65 65 65 65 64 65 65 65 65 65 65 65 66 66 66 65 64 64 64 63
63 63 62 63 63 63 63 63 63 62 63 62 63 64 66 65 64 63 63 64 64 64 64 65 64 64 65 65 65 65 65 65 65 65 64 64 63 65 64 65 63 62
63 62 62 62 63 64 63 63 63 62 63 63 63 65 65 64 64 64 64 63 64 64 63 63 63 63 64 64 64 63 63 64 64 65 63 64 63 63 65 65 63 62
63 63 62 62 64 64 63 62 62 64 63 63 64 64 65 65 64 64 64 64 63 64 63 63 63 63 64 64 63 63 63 64 64 64 64 64 65 64 65 65 64 62
63 63 63 64 64 64 63 62 62 63 63 63 63 63 64 64 63 63 64 63 63 63 64 64 64 63 64 63 63 63 63 64 64 63 63 64 64 63 64 64 63 60
63 64 63 63 64 64 63 62 63 63 64 64 63 63 64 63 63 63 63 63 63 63 63 63 63 62 63 63 63 63 63 63 64 64 63 63 63 63 64 64 61 62
64 64 63 63 63 64 64 63 63 63 65 64 64 63 63 64 65 64 64 64 63 63 63 62 61 62 62 63 63 63 63 63 63 63 63 62 62 63 63 63 62 61
64 64 63 63 63 63 63 63 63 63 64 64 64 64 64 64 65 65 64 64 63 63 61 61 61 61 62 63 63 63 63 63 63 62 62 61 62 62 63 63 62 62
64 64 64 63 63 64 64 64 64 64 64 64 65 64 64 64 63 63 64 63 62 61 61 62 62 62 62 62 63 64 64 63 63 62 62 62 62 62 62 63 63 63
64 64 64 64 64 64 65 65 64 63 62 63 65 64 63 62 62 61 61 62 62 62 61 61 61 62 62 63 63 63 63 62 62 62 62 63 63 63 63 63 63 63
64 65 64 64 65 65 65 64 64 63 62 61 62 61 60 60 60 60 60 62 62 61 62 63 63 61 61 62 63 63 63 62 62 62 62 61 62 62 62 63 63 64
66 65 65 65 65 65 64 64 64 63 62 61 61 60 60 58 59 60 61 61 62 63 62 63 61 62 63 63 63 62 62 62 62 62 62 62 62 62 61 61 61 62
65 65 64 64 64 64 64 64 63 63 62 62 62 62 62 63 61 61 61 61 61 62 61 61 61 62 64 63 63 62 61 62 62 63 63 62 63 62 62 61 61 62
65 64 64 64 64 64 64 64 63 63 63 62 62 62 62 62 63 62 61 62 62 62 61 61 63 63 62 61 61 63 63 61 61 62 62 62 62 62 61 61 60 58
65 64 64 63 64 64 64 64 64 63 62 62 62 62 62 63 63 63 63 62 63 62 60 60 61 62 60 60 60 60 62 62 61 61 61 61 61 60 59 59 58 58
65 63 63 63 63 64 64 63 63 62 62 62 62 62 62 63 63 63 63 63 62 61 60 60 60 61 59 59 59 58 59 60 59 60 60 60 60 60 60 60 59 60
64 63 63 63 63 63 63 63 62 62 62 62 62 63 63 63 63 63 63 63 62 62 61 60 59 59 59 58 57 57 58 59 59 59 59 59 59 59 60 60 60 60
65 65 63 63 63 63 63 63 62 62 62 62 62 62 63 63 63 63 63 63 63 62 61 59 61 59 57 56 55 55 56 58 58 58 58 58 58 59 59 60 60 61
65 64 64 63 63 63 63 62 62 62 62 62 62 62 62 62 63 63 63 63 61 61 61 61 63 59 56 55 55 54 56 58 58 57 57 57 59 59 60 60 60 60
64 64 63 63 63 62 62 62 62 62 62 62 62 62 61 62 62 62 61 63 61 61 60 61 61 59 55 54 53 54 55 56 56 57 58 58 59 59 59 59 60 60
64 63 63 62 62 62 62 62 62 62 62 63 62 61 62 62 62 62 62 62 62 61 62 61 60 59 54 52 52 53 56 56 56 56 56 57 58 58 58 57 58 60
64 63 62 62 62 62 62 61 62 62 62 63 62 63 63 62 63 62 61 60 60 60 63 60 59 56 53 52 52 52 56 55 56 57 57 56 56 56 56 55 56 58
60 61 62 61 61 61 62 62 62 62 62 63 62 63 63 62 62 61 60 60 60 60 60 58 57 57 59 51 51 52 54 58 57 56 56 55 54 55 55 54 54 56